TimeEDT,TemperatureF,Dew PointF,Humidity,Sea Level PressureIn,VisibilityMPH,Wind Direction,Wind SpeedMPH,Gust SpeedMPH,PrecipitationIn,Events,Conditions,WindDirDegrees,DateUTC
12:00 AM,64.4,62.6,94,29.87,3.0,North,4.6,-,N/A,,Overcast,350,2013-09-12 04:00:00
12:05 AM,62.6,62.6,100,29.87,2.5,NNW,5.8,-,N/A,,Overcast,330,2013-09-12 04:05:00
12:11 AM,62.6,62.6,100,29.87,2.0,NW,4.6,-,N/A,,Overcast,310,2013-09-12 04:11:00
12:22 AM,64.4,62.6,94,29.87,10.0,NW,5.8,-,N/A,,Overcast,320,2013-09-12 04:22:00
12:53 AM,64.0,62.1,93,29.86,10.0,NNW,5.8,-,N/A,,Mostly Cloudy,330,2013-09-12 04:53:00
1:21 AM,62.6,60.8,94,29.87,6.0,NNW,4.6,-,N/A,,Scattered Clouds,340,2013-09-12 05:21:00
1:24 AM,62.6,60.8,94,29.86,1.0,North,3.5,-,N/A,,Scattered Clouds,350,2013-09-12 05:24:00
1:29 AM,60.8,60.8,100,29.86,0.2,Calm,Calm,-,N/A,Fog,Fog,0,2013-09-12 05:29:00
1:38 AM,62.6,60.8,94,29.86,0.2,Calm,Calm,-,N/A,Fog,Fog,0,2013-09-12 05:38:00
1:46 AM,62.6,60.8,94,29.86,1.2,Calm,Calm,-,N/A,,Scattered Clouds,0,2013-09-12 05:46:00
1:48 AM,62.6,60.8,94,29.86,2.5,Calm,Calm,-,N/A,,Scattered Clouds,0,2013-09-12 05:48:00
1:53 AM,62.1,61.0,96,29.85,8.0,Calm,Calm,-,N/A,,Scattered Clouds,0,2013-09-12 05:53:00
2:53 AM,60.1,60.1,100,29.85,7.0,Calm,Calm,-,N/A,,Clear,0,2013-09-12 06:53:00
2:59 AM,60.8,59.0,94,29.86,1.8,Calm,Calm,-,N/A,,Clear,0,2013-09-12 06:59:00
3:02 AM,60.8,60.8,100,29.86,1.0,Calm,Calm,-,N/A,,Mist,0,2013-09-12 07:02:00
3:11 AM,62.6,60.8,94,29.86,1.5,Calm,Calm,-,N/A,,Partly Cloudy,0,2013-09-12 07:11:00
3:18 AM,62.6,60.8,94,29.86,10.0,Calm,Calm,-,N/A,,Partly Cloudy,0,2013-09-12 07:18:00
3:31 AM,60.8,60.8,100,29.86,1.8,Calm,Calm,-,N/A,,Clear,0,2013-09-12 07:31:00
3:37 AM,60.8,60.8,100,29.86,1.2,Calm,Calm,-,N/A,,Clear,0,2013-09-12 07:37:00
3:40 AM,60.8,60.8,100,29.86,1.8,Calm,Calm,-,N/A,,Clear,0,2013-09-12 07:40:00
3:53 AM,61.0,60.1,97,29.85,1.2,South,3.5,-,N/A,,Partly Cloudy,180,2013-09-12 07:53:00
3:56 AM,60.8,60.8,100,29.86,0.8,South,3.5,-,N/A,,Mist,180,2013-09-12 07:56:00
4:09 AM,60.8,60.8,100,29.86,1.0,Calm,Calm,-,N/A,,Scattered Clouds,0,2013-09-12 08:09:00
4:12 AM,62.6,60.8,94,29.86,2.0,Calm,Calm,-,N/A,,Mostly Cloudy,0,2013-09-12 08:12:00
4:20 AM,60.8,60.8,100,29.86,1.5,SSE,3.5,-,N/A,,Mostly Cloudy,150,2013-09-12 08:20:00
4:29 AM,60.8,60.8,100,29.86,1.2,SE,4.6,-,N/A,,Overcast,140,2013-09-12 08:29:00
4:33 AM,60.8,60.8,100,29.86,1.8,SE,3.5,-,N/A,,Overcast,140,2013-09-12 08:33:00
4:37 AM,62.6,60.8,94,29.86,3.0,Calm,Calm,-,N/A,,Overcast,0,2013-09-12 08:37:00
4:53 AM,62.1,61.0,96,29.84,3.0,Calm,Calm,-,N/A,,Overcast,0,2013-09-12 08:53:00
4:55 AM,60.8,60.8,100,29.85,1.8,Calm,Calm,-,N/A,,Overcast,0,2013-09-12 08:55:00
4:58 AM,60.8,60.8,100,29.85,1.2,Calm,Calm,-,N/A,,Overcast,0,2013-09-12 08:58:00
5:07 AM,60.8,59.0,94,29.85,0.5,Calm,Calm,-,N/A,Fog,Fog,0,2013-09-12 09:07:00
5:30 AM,62.6,60.8,94,29.84,1.5,Calm,Calm,-,N/A,,Overcast,0,2013-09-12 09:30:00
5:32 AM,62.6,60.8,94,29.84,4.0,Calm,Calm,-,N/A,,Overcast,0,2013-09-12 09:32:00
5:53 AM,62.1,61.0,96,29.83,10.0,Calm,Calm,-,N/A,,Overcast,0,2013-09-12 09:53:00
6:19 AM,62.6,60.8,94,29.84,1.5,ESE,3.5,-,N/A,,Overcast,120,2013-09-12 10:19:00
6:21 AM,62.6,60.8,94,29.84,0.8,ESE,3.5,-,N/A,,Overcast,110,2013-09-12 10:21:00
6:50 AM,60.8,60.8,100,29.83,2.0,East,4.6,-,N/A,,Overcast,90,2013-09-12 10:50:00
6:53 AM,61.0,60.1,97,29.82,3.0,East,4.6,-,N/A,,Overcast,90,2013-09-12 10:53:00
7:15 AM,62.6,60.8,94,29.82,5.0,East,5.8,-,N/A,,Mostly Cloudy,100,2013-09-12 11:15:00
7:38 AM,62.6,60.8,94,29.83,1.2,SSE,4.6,-,N/A,,Overcast,160,2013-09-12 11:38:00
7:44 AM,60.8,60.8,100,29.83,0.2,SSE,4.6,-,N/A,Fog,Fog,150,2013-09-12 11:44:00
7:53 AM,61.0,61.0,100,29.82,0.2,ESE,3.5,-,0.01,Fog-Rain,Light Rain,110,2013-09-12 11:53:00
8:01 AM,62.6,60.8,94,29.83,1.8,Calm,Calm,-,0.00,Rain,Light Rain,0,2013-09-12 12:01:00
8:03 AM,62.6,60.8,94,29.83,3.0,Calm,Calm,-,0.00,Rain,Light Rain,0,2013-09-12 12:03:00
8:16 AM,62.6,60.8,94,29.83,2.5,Calm,Calm,-,0.00,Rain,Light Rain,0,2013-09-12 12:16:00
8:29 AM,62.6,60.8,94,29.84,1.0,SSE,4.6,-,0.00,,Overcast,160,2013-09-12 12:29:00
8:36 AM,62.6,60.8,94,29.84,0.2,SSE,4.6,-,0.00,Fog,Fog,150,2013-09-12 12:36:00
8:53 AM,62.1,61.0,96,29.84,0.5,SSE,6.9,-,0.00,Fog,Fog,150,2013-09-12 12:53:00
8:57 AM,62.6,60.8,94,29.85,1.5,SSE,6.9,-,N/A,,Overcast,150,2013-09-12 12:57:00
9:04 AM,62.6,62.6,100,29.84,1.8,SSE,6.9,-,N/A,,Overcast,150,2013-09-12 13:04:00
9:11 AM,62.6,62.6,100,29.85,2.5,SSE,5.8,-,N/A,,Overcast,160,2013-09-12 13:11:00
9:18 AM,62.6,62.6,100,29.85,8.0,SSE,8.1,-,N/A,,Overcast,160,2013-09-12 13:18:00
9:23 AM,62.6,62.6,100,29.84,10.0,SSE,5.8,-,N/A,,Overcast,160,2013-09-12 13:23:00
9:53 AM,64.0,63.0,96,29.82,10.0,SE,6.9,-,N/A,,Overcast,130,2013-09-12 13:53:00
10:44 AM,64.4,64.4,100,29.81,10.0,SE,5.8,-,N/A,,Overcast,140,2013-09-12 14:44:00
10:53 AM,64.9,64.0,97,29.79,9.0,SE,5.8,-,0.00,Rain,Light Rain,140,2013-09-12 14:53:00
11:04 AM,64.4,64.4,100,29.80,4.0,SE,6.9,-,0.02,Rain,Rain,140,2013-09-12 15:04:00
11:12 AM,64.4,64.4,100,29.79,1.8,SE,8.1,-,0.05,Rain,Heavy Rain,130,2013-09-12 15:12:00
11:15 AM,64.4,64.4,100,29.79,1.2,SE,6.9,-,0.06,Rain,Heavy Rain,130,2013-09-12 15:15:00
11:23 AM,64.4,64.4,100,29.78,0.2,SE,4.6,-,0.07,Fog-Rain,Light Rain,130,2013-09-12 15:23:00
11:38 AM,64.4,64.4,100,29.79,1.5,SE,3.5,-,0.08,Rain,Light Rain,140,2013-09-12 15:38:00
11:53 AM,64.9,64.9,100,29.77,1.2,SE,4.6,-,0.08,Rain,Light Rain,140,2013-09-12 15:53:00
11:59 AM,64.4,64.4,100,29.77,1.8,SE,4.6,-,0.01,Rain,Light Rain,140,2013-09-12 15:59:00
12:02 PM,64.4,64.4,100,29.77,1.2,SE,4.6,-,0.01,Rain,Light Rain,140,2013-09-12 16:02:00
12:13 PM,66.2,64.4,94,29.77,0.5,SE,5.8,-,0.04,Fog-Rain,Rain,130,2013-09-12 16:13:00
12:53 PM,66.0,64.9,96,29.75,1.5,South,6.9,-,0.18,Rain,Rain,170,2013-09-12 16:53:00
1:10 PM,66.2,66.2,100,29.76,1.0,South,6.9,-,0.03,Rain,Rain,170,2013-09-12 17:10:00
1:20 PM,66.2,66.2,100,29.75,1.8,South,9.2,-,0.04,Rain,Rain,180,2013-09-12 17:20:00
1:24 PM,66.2,66.2,100,29.75,3.0,South,6.9,-,0.05,Rain,Light Rain,180,2013-09-12 17:24:00
1:53 PM,66.9,66.0,97,29.73,5.0,South,5.8,-,0.07,Rain,Light Rain,190,2013-09-12 17:53:00
2:22 PM,66.2,66.2,100,29.72,6.0,South,10.4,-,0.01,Rain,Light Rain,180,2013-09-12 18:22:00
2:53 PM,66.9,66.0,97,29.71,8.0,South,6.9,-,0.02,Rain,Light Rain,190,2013-09-12 18:53:00
3:00 PM,66.2,66.2,100,29.72,8.0,SSW,5.8,-,0.01,Rain,Light Rain,200,2013-09-12 19:00:00
3:48 PM,66.2,64.4,94,29.71,7.0,Calm,Calm,-,0.06,Rain,Light Rain,0,2013-09-12 19:48:00
3:53 PM,66.0,64.9,96,29.71,7.0,SSW,8.1,-,0.06,Rain,Light Rain,210,2013-09-12 19:53:00
3:58 PM,66.2,64.4,94,29.72,7.0,SSW,8.1,-,0.00,Rain,Light Rain,210,2013-09-12 19:58:00
4:24 PM,64.4,64.4,100,29.70,6.0,SSW,3.5,-,0.03,Rain,Light Rain,200,2013-09-12 20:24:00
4:53 PM,64.9,64.0,97,29.67,10.0,SSE,5.8,-,0.04,Rain,Light Rain,160,2013-09-12 20:53:00
5:51 PM,64.4,64.4,100,29.67,10.0,SSE,3.5,-,0.00,,Mostly Cloudy,150,2013-09-12 21:51:00
5:53 PM,64.9,64.0,97,29.66,10.0,SSE,3.5,-,0.00,,Mostly Cloudy,160,2013-09-12 21:53:00
6:02 PM,64.4,64.4,100,29.67,1.8,SSE,3.5,-,N/A,,Overcast,150,2013-09-12 22:02:00
6:10 PM,64.4,64.4,100,29.66,3.0,SSE,4.6,-,N/A,,Overcast,160,2013-09-12 22:10:00
6:43 PM,64.4,64.4,100,29.66,1.8,SSE,6.9,-,N/A,,Overcast,160,2013-09-12 22:43:00
6:47 PM,64.4,64.4,100,29.66,1.2,South,5.8,-,N/A,,Overcast,170,2013-09-12 22:47:00
6:51 PM,64.4,64.4,100,29.66,1.8,South,5.8,-,0.00,Rain,Light Rain,180,2013-09-12 22:51:00
6:53 PM,64.9,64.0,97,29.65,2.0,South,5.8,-,0.00,Rain,Light Rain,180,2013-09-12 22:53:00
7:04 PM,64.4,64.4,100,29.65,1.2,SE,6.9,-,0.00,,Overcast,140,2013-09-12 23:04:00
7:13 PM,64.4,64.4,100,29.66,0.5,Calm,Calm,-,0.00,Fog-Rain,Light Rain,0,2013-09-12 23:13:00
7:41 PM,64.4,64.4,100,29.66,1.2,SSE,3.5,-,0.00,,Overcast,160,2013-09-12 23:41:00
7:45 PM,64.4,64.4,100,29.65,1.8,SSE,5.8,-,0.00,,Overcast,150,2013-09-12 23:45:00
7:51 PM,64.4,64.4,100,29.65,3.0,SSE,8.1,-,0.00,,Overcast,150,2013-09-12 23:51:00
7:52 PM,64.9,64.0,97,29.65,3.0,SSE,8.1,-,0.00,,Overcast,150,2013-09-12 23:52:00
7:54 PM,64.4,64.4,100,29.65,1.5,SSE,8.1,-,N/A,,Overcast,150,2013-09-12 23:54:00
7:57 PM,64.4,64.4,100,29.65,0.8,SSE,6.9,-,N/A,,Overcast,150,2013-09-12 23:57:00
8:14 PM,64.4,64.4,100,29.64,1.5,SSE,6.9,-,N/A,,Overcast,160,2013-09-13 00:14:00
8:16 PM,64.4,64.4,100,29.64,2.5,SSE,6.9,-,N/A,,Overcast,150,2013-09-13 00:16:00
8:23 PM,64.4,64.4,100,29.64,4.0,SSE,5.8,-,N/A,,Overcast,160,2013-09-13 00:23:00
8:51 PM,64.4,64.4,100,29.64,10.0,SSE,5.8,-,N/A,,Overcast,160,2013-09-13 00:51:00
8:53 PM,64.0,64.0,100,29.64,10.0,SSE,6.9,-,N/A,,Overcast,160,2013-09-13 00:53:00
9:53 PM,64.0,63.0,96,29.61,10.0,South,6.9,-,N/A,,Mostly Cloudy,170,2013-09-13 01:53:00
10:53 PM,64.0,63.0,96,29.57,10.0,South,4.6,-,N/A,,Overcast,170,2013-09-13 02:53:00
11:15 PM,64.4,62.6,94,29.59,2.5,South,6.9,-,N/A,,Overcast,170,2013-09-13 03:15:00
11:19 PM,64.4,62.6,94,29.59,1.5,South,3.5,-,N/A,,Overcast,180,2013-09-13 03:19:00
11:25 PM,64.4,62.6,94,29.59,0.8,South,4.6,-,N/A,,Mist,190,2013-09-13 03:25:00
11:53 PM,64.0,63.0,96,29.56,0.2,SSW,3.5,-,N/A,Fog,Fog,200,2013-09-13 03:53:00